Regional Weather Roundup
Issued by NWS

Home | Current Version | Previous Version | Text Only | Print | Product List | Glossary Off
Versions: 1 2 3 4 5 6 7 8 9 10 11 12 13 14 15 16 17 18 19 20 21 22 23 24 25 26 27 28 29 30 31 32 33 34 35 36 37 38 39 40 41 42 43 44 45 46 47 48 49 50

000
ASUS43 KLOT 170603
RWRIL

ILLINOIS REGIONAL WEATHER ROUNDUP
NATIONAL WEATHER SERVICE CHICAGO/ROMEOVILLE IL
1200 AM CST WED JAN 17 2018

NOTE: "FAIR" INDICATES FEW OR NO CLOUDS BELOW 12,000 FEET WITH NO
SIGNIFICANT WEATHER AND/OR OBSTRUCTIONS TO VISIBILITY.

* THESE STATIONS ARE NOT UNDER NWS QUALITY CONTROL. THEY ALSO MAY NOT
  REPORT WEATHER SUCH AS PRECIPITATION OR FOG.

ILZ001-002-007-009-015-016-024-170700-
NORTHWEST ILLINOIS

CITY           SKY/WX    TMP DP  RH WIND       PRES   REMARKS
MOLINE         FAIR       4  -1  80 W8        30.62S WCI  -9
6HR MIN TEMP:   3; 6HR MAX TEMP:  12;

STERLING*      FAIR       1  -3  83 W8        30.59F WCI -13
SAVANNA*       FAIR       3  -1  82 W3        30.59F
$$

ILZ003-004-008-010-011-017-018-170700-
NORTH CENTRAL ILLINOIS

CITY           SKY/WX    TMP DP  RH WIND       PRES   REMARKS
ROCKFORD       FAIR       2  -1  88 S5        30.56F WCI  -8
6HR MIN TEMP:   2; 6HR MAX TEMP:  13;

FREEPORT*      FAIR       4   0  86 W7        30.56S WCI  -9
ROCHELLE*      FAIR      -2  -5  87 SW6       30.56F WCI -14
DE KALB*       FAIR       6   2  86 W9        30.53F WCI  -8
PERU*          FAIR       4   0  83 W8        30.58F WCI  -9
$$

ILZ005-006-012>014-019>023-170700-
NORTHEAST ILLINOIS

CITY           SKY/WX    TMP DP  RH WIND       PRES   REMARKS
CHICAGO-OHARE  FAIR      12   7  80 NW8       30.51F WCI   0
6HR MIN TEMP:  12; 6HR MAX TEMP:  20;

CHICAGO-MIDWAY FAIR      14   9  80 NW10      30.52F WCI   1
6HR MIN TEMP:  14; 6HR MAX TEMP:  21;

AURORA         FAIR       3  -1  83 W9        30.54F WCI -12
6HR MIN TEMP:   2; 6HR MAX TEMP:  11;

LANSING*       FAIR      11   9  89 W5        30.52F WCI   3
JOLIET*        FAIR       8   5  86 CALM      30.55F
WAUKEGAN       FAIR      13   7  77 W6        30.50F WCI   4
6HR MIN TEMP:  13; 6HR MAX TEMP:  20;

DUPAGE AIRPORT FAIR       7   5  91 NW5       30.52F WCI  -2
6HR MIN TEMP:   7; 6HR MAX TEMP:  16;

KANKAKEE*      FAIR       4   1  84 W10       30.55F WCI -11
WHEELING       FAIR      13   8  81 NW8       30.53F WCI   2
6HR MIN TEMP:  13; 6HR MAX TEMP:  20;

MORRIS*        FAIR       5   1  84 W7        30.55F WCI  -7
ROMEOVILLE*    FAIR       6   2  87 NW7       30.54S WCI  -6
NORTHERLY ISL    N/A     17  10  74 W14         N/A  WCI   3
$$

LMZ740>746-170700-
SOUTHERN LAKE MICHIGAN

STATION/POSITION SKY/WX   TEMP    WIND        PRES    VSBY  WAVE
                          AIR SEA DIR/SP/G                  HT/PER
                          (F)     (DEG/KT/KT) (MB)    (MI)  (FT/S)
HARRISON CRIB              19     300/ 18/ 19   N/A
BURNHAM HARBOR             17     280/ 11/ 14   N/A
CALUMET HARBOR             16     270/  5/  9 1032.5F
BURNS HARBOR               23     320/ 15/ 20 1032.8S
MICHIGAN CITY              22     260/  1/  2   N/A
$$

ILZ025>027-034>036-040-047-049-050-058-095>099-170700-
WEST-CENTRAL ILLINOIS

CITY           SKY/WX    TMP DP  RH WIND       PRES   REMARKS
QUINCY         CLOUDY     2  -3  80 W7        30.65F WCI -11
GALESBURG*     FAIR       0  -3  87 W7        30.62F WCI -13
MACOMB*        CLEAR      1  -3  85 W8        30.66F WCI -13
JACKSONVILLE*  CLEAR      3  -2  79 W7        30.66S WCI -10
PITTSFIELD*    CLEAR      4  -1  79 W5        30.67F WCI  -5
$$

ILZ028>032-037-038-041>044-048-051>054-059>061-170700-
CENTRAL ILLINOIS

CITY           SKY/WX    TMP DP  RH WIND       PRES   REMARKS
BLOOMINGTON    FAIR       2  -1  88 W13       30.57F WCI -15
DECATUR        FAIR       6   2  83 W14       30.61F WCI -11
PEORIA         FAIR       3  -1  83 W5        30.62F WCI  -6
6HR MIN TEMP:   3; 6HR MAX TEMP:   9;

LACON*         FAIR       0  -3  87 CALM      30.61S
LINCOLN*       FAIR       5   1  84 W6        30.62F WCI  -6
SPRINGFIELD    FAIR       1  -3  83 W8        30.64F WCI -13
6HR MIN TEMP:   0; 6HR MAX TEMP:  11;

TAYLORVILLE    FAIR       4  -1  80 W9        30.64F WCI -10
6HR MIN TEMP:   4; 6HR MAX TEMP:   9;

$$

ILZ033-039-045-046-055>057-062-063-170700-
EAST-CENTRAL ILLINOIS

CITY           SKY/WX    TMP DP  RH WIND       PRES   REMARKS
CHAMPAIGN      FAIR       0  -4  83 W9        30.58F WCI -15
DANVILLE*      FAIR       1  -3  85 SW6       30.54F WCI -11
RANTOUL*       FAIR       5   2  86 W9        30.57S WCI  -9
MATTOON        FAIR       4   0  83 W8        30.59F WCI  -9
PARIS*         FAIR       3   0  87 W9        30.60F WCI -12
$$

ILZ079-100>102-170700-
SOUTHWEST ILLINOIS

CITY           SKY/WX    TMP DP  RH WIND       PRES   REMARKS
ALTON          MOCLDY     8   4  86 W6        30.69S WCI  -3
BELLEVILLE     CLOUDY    11   2  69 NW7       30.68F WCI   0
CAHOKIA*       CLOUDY    11   3  70 W9        30.70F WCI  -2
SPARTA*        CLOUDY    10   5  80 NW6       30.69F WCI   0
$$

ILZ064>066-069>071-074>076-080>082-084>086-088>090-092>094-170700-
SOUTH-CENTRAL ILLINOIS

CITY           SKY/WX    TMP DP  RH WIND       PRES   REMARKS
CARBONDALE     CLOUDY    10   4  76 NW9       30.70S WCI  -3
6HR MIN TEMP:  10; 6HR MAX TEMP:  11; 6HR PCP: TRACE;

CAIRO*         CLOUDY    10   4  75 N10       30.69S WCI  -3
EFFINGHAM*     FAIR       5   1  83 W7        30.65F WCI  -7
MARION         CLOUDY     9   2  72 NW8       30.69F WCI  -3
MT. VERNON     FLURRIES  10   5  80 CALM      30.68S
CENTRALIA*     FLURRIES  11   6  81 W8        30.67S WCI  -1
SALEM*         CLOUDY    10   4  74 NW9       30.66S WCI  -2
METROPOLIS*    FLURRIES  10   4  78 NW6       30.68F WCI   0
$$

ILZ067-068-072-073-078-083-087-091-170700-
SOUTHEAST ILLINOIS

CITY           SKY/WX    TMP DP  RH WIND       PRES   REMARKS
LAWRENCEVILLE  CLOUDY     9   5  84 W6        30.65F WCI  -1
FLORA*         FLURRIES  11   6  77 W8        30.66F WCI   0
FAIRFIELD*     FLURRIES  10   5  79 W5        30.66F WCI   2
HARRISBURG*    CLOUDY    10   4  77 NW7       30.69S WCI  -1
ROBINSON*      FLURRIES   8   4  86 W7        30.65S WCI  -4
CARMI*         CLOUDY    10   5  80 NW9       30.66F WCI  -3
$$

ABBREVIATIONS USED IN REMARKS
   TC - TEMPERATURE IN CELSIUS
  WCI - WIND CHILL INDEX
   HX - HEAT INDEX
  VSB - VISIBILITY
$$





USA.gov is the U.S. government's official web portal to all federal, state and local government web resources and services.